Location: Morgantown
(40.9734°N, 80.6323°W)
Time: 20:25:53
(UTC+00:00)

Cosmos 1892 - Pass Details

Date: 29 October 2020
Orbit: 504 x 524 km, 82.5° (Epoch: 03 December)

Event Time Altitude Azimuth Distance (km) Brightness Sun altitude
Rises 23:15:07 0° 358° (N) 2,666 6.2 -10.7°
Reaches altitude 10° 23:17:20 10° 4° (N) 1,773 5.3 -11.1°
Maximum altitude 23:21:05 46° 79° (E) 710 2.9 -11.8°
Drops below altitude 10° 23:24:49 10° 154° (SSE) 1,758 5.2 -12.5°
Sets 23:27:00 0° 160° (SSE) 2,640 6.2 -12.9°
